North Bend, OR

10:23 PM PDT on April 26, 2017 (GMT -0700)
North Bend Municipal

Weather History for KOTH - November, 2011

Change the Weather History Date:

Wednesday, November 2, 2011

  Actual Average Record
Temperature  
Mean Temperature 50 °F 51 °F  
Max Temperature 63 °F 58 °F 73 °F (1986)
Min Temperature 37 °F 45 °F 26 °F (1935)
Degree Days  
Heating Degree Days 15 14  
Month to date heating degree days 32 28  
Since 1 July heating degree days 878 994  
Cooling Degree Days 0 0  
Month to date cooling degree days 0 0  
Year to date cooling degree days 1 2  
Moisture  
Dew Point 37 °F    
Average Humidity 63    
Maximum Humidity 80    
Minimum Humidity 47    
Precipitation  
Precipitation 0.57 in 0.27 in 1.51 in (2006)
Month to date precipitation 0.57 0.52  
Year to date precipitation 31.48 44.07  
Sea Level Pressure  
Sea Level Pressure 30.11 in    
Wind  
Wind Speed 9 mph (South)    
Max Wind Speed 14 mph    
Max Gust Speed 24 mph    
Visibility 10 miles    
Events      
T = Trace of Precipitation, MM = Missing Value Source: NWS Daily Summary

Daily Weather History Graph

Daily Weather History Graph

Search for Another Location

Airport or City:

Trip Planner

Search our weather history database for the weather conditions in past years. The results will help you decide how hot, cold, wet, or windy it might be!

Date:

Astronomy

Nov. 02, 2011 Rise Set
Actual Time 7:53 AM PDT 6:07 PM PDT
Civil Twilight 7:23 AM PDT 6:36 PM PDT
Nautical Twilight 6:49 AM PDT 7:10 PM PDT
Astronomical Twilight 6:16 AM PDT 7:43 PM PDT
Moon 2:15 PM PDT (11/2) No Moon Set
Length of Visible Light 11h 13m
Length of Day
10h 13m
Waxing Crescent, 51% of the Moon is Illuminated
Nov 2
Waxing Crescent
Nov 10
Full
Nov 18
Last Quarter
Nov 24
New
Dec 2
First Quarter

Hourly Weather History & Observations

Time (PDT) Temp. Windchill Dew Point Humidity Pressure Visibility Wind Dir Wind Speed Gust Speed Precip Events Conditions
12:15 AM 39.2 °F 35.0 °F 32.0 °F 75% 30.27 in 10.0 mi SSE 5.8 mph - N/A   Clear
12:35 AM 41.0 °F 36.4 °F 33.8 °F 76% 30.26 in 10.0 mi South 6.9 mph - N/A   Clear
12:55 AM 42.8 °F 38.6 °F 33.8 °F 70% 30.25 in 10.0 mi South 6.9 mph - N/A   Clear
1:15 AM 42.8 °F 37.5 °F 33.8 °F 70% 30.25 in 10.0 mi South 9.2 mph - N/A   Clear
1:35 AM 42.8 °F 37.5 °F 32.0 °F 66% 30.24 in 10.0 mi SSE 9.2 mph - N/A   Clear
1:55 AM 41.0 °F 35.2 °F 32.0 °F 70% 30.23 in 10.0 mi SE 9.2 mph - N/A   Clear
2:55 AM 42.8 °F 38.6 °F 32.0 °F 66% 30.19 in 10.0 mi SE 6.9 mph - N/A   Clear
3:55 AM 42.8 °F 37.5 °F 30.2 °F 61% 30.17 in 10.0 mi SSE 9.2 mph - N/A   Clear
4:15 AM 42.8 °F 36.6 °F 30.2 °F 61% 30.17 in 10.0 mi SSE 11.5 mph - N/A   Clear
4:35 AM 42.8 °F 36.6 °F 30.2 °F 61% 30.16 in 10.0 mi SSE 11.5 mph - N/A   Clear
4:55 AM 42.8 °F 35.8 °F 28.4 °F 57% 30.16 in 10.0 mi SE 13.8 mph - N/A   Clear
5:15 AM 42.8 °F 38.0 °F 28.4 °F 57% 30.15 in 10.0 mi SSE 8.1 mph - N/A   Clear
5:35 AM 42.8 °F 38.0 °F 28.4 °F 57% 30.15 in 10.0 mi SE 8.1 mph - N/A   Clear
5:55 AM 42.8 °F 38.6 °F 28.4 °F 57% 30.15 in 10.0 mi SE 6.9 mph - N/A   Clear
6:15 AM 42.8 °F 41.1 °F 30.2 °F 61% 30.15 in 10.0 mi South 3.5 mph - N/A   Clear
6:35 AM 42.8 °F - 28.4 °F 57% 30.15 in 10.0 mi Calm Calm - N/A   Clear
6:55 AM 39.2 °F 34.2 °F 26.6 °F 61% 30.15 in 10.0 mi East 6.9 mph - N/A   Clear
7:15 AM 39.2 °F 32.5 °F 30.2 °F 70% 30.14 in 10.0 mi SE 10.4 mph - N/A   Clear
7:35 AM 37.4 °F 31.4 °F 26.6 °F 65% 30.13 in 10.0 mi SE 8.1 mph - N/A   Clear
7:55 AM 39.2 °F 31.6 °F 28.4 °F 65% 30.12 in 10.0 mi SE 12.7 mph - N/A   Clear
8:15 AM 41.0 °F 34.3 °F 28.4 °F 61% 30.13 in 10.0 mi SE 11.5 mph - N/A   Clear
8:35 AM 41.0 °F 34.3 °F 30.2 °F 65% 30.13 in 10.0 mi SE 11.5 mph - N/A   Clear
8:55 AM 42.8 °F 37.0 °F 30.2 °F 61% 30.13 in 10.0 mi SSE 10.4 mph - N/A   Clear
9:15 AM 44.6 °F 40.2 °F 30.2 °F 57% 30.14 in 10.0 mi SE 8.1 mph - N/A   Clear
9:35 AM 46.4 °F 41.1 °F 30.2 °F 53% 30.14 in 10.0 mi SE 11.5 mph - N/A   Clear
9:55 AM 46.4 °F 41.5 °F 32.0 °F 57% 30.14 in 10.0 mi SE 10.4 mph - N/A   Clear
10:15 AM 46.4 °F 41.5 °F 33.8 °F 62% 30.13 in 10.0 mi SE 10.4 mph - N/A   Clear
10:35 AM 50.0 °F - 33.8 °F 54% 30.13 in 10.0 mi ESE 9.2 mph - N/A   Clear
10:55 AM 51.8 °F - 35.6 °F 54% 30.12 in 10.0 mi SE 12.7 mph - N/A   Clear
11:15 AM 53.6 °F - 33.8 °F 47% 30.11 in 10.0 mi SSE 9.2 mph - N/A   Clear
11:35 AM 55.4 °F - 35.6 °F 47% 30.10 in 10.0 mi SSE 10.4 mph - N/A   Clear
12:15 PM 60.8 °F - 37.4 °F 42% 30.09 in 10.0 mi South 9.2 mph - N/A   Clear
12:35 PM 62.6 °F - 37.4 °F 39% 30.09 in 10.0 mi WSW 8.1 mph - N/A   Clear
12:55 PM 57.2 °F - 44.6 °F 63% 30.09 in 10.0 mi West 13.8 mph 24.2 mph N/A   Clear
1:15 PM 57.2 °F - 46.4 °F 67% 30.08 in 10.0 mi WSW 12.7 mph - N/A   Clear
1:35 PM 57.2 °F - 44.6 °F 63% 30.06 in 10.0 mi SSW 8.1 mph - N/A   Clear
1:55 PM 62.6 °F - 42.8 °F 48% 30.03 in 10.0 mi SSE 10.4 mph - N/A   Clear
2:15 PM 60.8 °F - 42.8 °F 52% 30.06 in 10.0 mi West 19.6 mph 23.0 mph N/A   Clear
2:35 PM 57.2 °F - 46.4 °F 67% 30.05 in 10.0 mi WSW 20.7 mph 24.2 mph N/A   Clear
2:55 PM 55.4 °F - 46.4 °F 72% 30.06 in 10.0 mi WSW 12.7 mph - N/A   Clear
3:15 PM 55.4 °F - 46.4 °F 72% 30.06 in 10.0 mi WSW 10.4 mph - N/A   Partly Cloudy
3:35 PM 55.4 °F - 44.6 °F 67% 30.06 in 10.0 mi SW 11.5 mph 18.4 mph N/A   Partly Cloudy
3:55 PM 55.4 °F - 46.4 °F 72% 30.04 in 10.0 mi SSW 13.8 mph 18.4 mph N/A   Partly Cloudy
4:15 PM 57.2 °F - 46.4 °F 67% 30.03 in 10.0 mi SW 6.9 mph - N/A   Partly Cloudy
4:35 PM 55.4 °F - 44.6 °F 67% 30.02 in 10.0 mi South 13.8 mph 17.3 mph N/A   Partly Cloudy
4:55 PM 55.4 °F - 44.6 °F 67% 30.01 in 10.0 mi South 8.1 mph - N/A   Clear
5:15 PM 55.4 °F - 44.6 °F 67% 30.01 in 10.0 mi South 8.1 mph - N/A   Mostly Cloudy
5:35 PM 55.4 °F - 44.6 °F 67% 30.00 in 10.0 mi SSW 3.5 mph - N/A   Overcast
5:55 PM 55.4 °F - 44.6 °F 67% 30.00 in 10.0 mi Calm Calm - N/A   Overcast
6:15 PM 53.6 °F - 44.6 °F 72% 30.00 in 8.0 mi SSW 9.2 mph 16.1 mph N/A   Overcast
6:35 PM 51.8 °F - 44.6 °F 76% 30.00 in 5.0 mi WSW 8.1 mph - N/A   Overcast
6:55 PM 51.8 °F - 44.6 °F 76% 30.02 in 2.5 mi West 12.7 mph - 0.03 in   Overcast
7:15 PM 50.0 °F - 44.6 °F 82% 30.03 in 4.0 mi West 12.7 mph - 0.10 in   Overcast
7:35 PM 50.0 °F - 44.6 °F 82% 30.03 in 3.0 mi WSW 8.1 mph - 0.14 in   Overcast
7:55 PM 50.0 °F - 44.6 °F 82% 30.03 in 4.0 mi West 8.1 mph - 0.16 in   Mostly Cloudy
8:15 PM 50.0 °F - 44.6 °F 82% 30.02 in 3.0 mi West 9.2 mph - 0.02 in   Mostly Cloudy
8:35 PM 50.0 °F - 44.6 °F 82% 30.03 in 5.0 mi WNW 8.1 mph - 0.03 in   Overcast
8:55 PM 48.2 °F - 42.8 °F 82% 30.02 in 5.0 mi NNW 4.6 mph - 0.05 in   Overcast
9:15 PM 48.2 °F - 42.8 °F 82% 30.02 in 6.0 mi North 4.6 mph - 0.02 in   Overcast
9:35 PM 48.2 °F - 42.8 °F 82% 30.02 in 8.0 mi North 4.6 mph - 0.05 in   Overcast
9:55 PM 48.2 °F - 42.8 °F 82% 30.03 in 8.0 mi NW 4.6 mph - 0.07 in   Overcast
10:15 PM 48.2 °F - 42.8 °F 82% 30.04 in 8.0 mi West 11.5 mph - 0.01 in   Mostly Cloudy
10:35 PM 48.2 °F - 42.8 °F 82% 30.03 in 10.0 mi West 10.4 mph - 0.05 in   Overcast
10:55 PM 46.4 °F 42.9 °F 39.2 °F 76% 30.02 in 10.0 mi WSW 6.9 mph - 0.08 in   Overcast
11:15 PM 46.4 °F 42.4 °F 39.2 °F 76% 30.02 in 9.0 mi South 8.1 mph - 0.03 in   Overcast
11:35 PM 46.4 °F 42.9 °F 39.2 °F 76% 30.03 in 10.0 mi SSW 6.9 mph - 0.06 in   Overcast
11:55 PM 46.4 °F 43.5 °F 39.2 °F 76% 30.02 in 10.0 mi South 5.8 mph - 0.09 in   Overcast